www.pogodaiklimat.ru

Погода и климат >> Архив погоды >> Великобритания >> Абердин


АРХИВ ПОГОДЫ в Абердине

Время (UTC), дата Ветер
(напр.,м/с)
 
Видим.   Явления Облачность Т
(С)
Тd
(С)
f
(%)
Тe
(С)
Тes
(С)
Комфортность P
(гПа)
Po
(гПа)
Тmin
(С)
Tmax
(С)
R
(мм)
R24
(мм)
S
(см)
13 15.08 СЗ 9-14
{16}
28 км н/о +16.3 +8.2 59 +15 +15 тепло 1005.3 997.6
14 15.08 СЗ 9
{15}
40 км н/о +16.8 +7.8 55 +15 +15 по сезону 1006.2 998.5
15 15.08 СЗ 8
{13}
45 км н/о +16.8 +7.4 54 +16 +16 по сезону 1006.7 999.0
16 15.08 СЗ 8
{13}
45 км н/о +16.9 +5.2 46 +16 +16 тепло 1007.2 999.6
17 15.08 СЗ 6 45 км н/о +16.3 +5.9 50 +15 +15 тепло 1007.9 1000.2
18 15.08 СЗ 4 45 км н/о +16.6 +5.5 48 +16 +16 тепло 1008.3 1000.6 +18.2
19 15.08 З 3 50 км н/о +16.4 +6.9 53 +16 +16 тепло 1008.8 1001.1
20 15.08 ЮЗ 2 50 км н/о +14.1 +7.1 63 +14 +14 тепло 1009.2 1001.5
21 15.08 З 2 50 км н/о +12.4 +7.0 70 +12 +12 по сезону 1009.1 1001.3
22 15.08 ЮЗ 2 45 км н/о +12.6 +6.7 67 +12 +12 тепло 1008.8 1001.0
23 15.08 ЮЗ 3 50 км н/о +13.1 +7.1 67 +12 +12 тепло 1008.5 1000.7
00 16.08 ЮЗ 5 50 км н/о +13.6 +8.1 69 +12 +12 по сезону 1007.9 1000.1
01 16.08 ЮЗ 4 50 км слаб. ливневой дождь н/о +13.4 +9.4 77 +12 +12 тепло 1007.3 999.5
02 16.08 Ю 2 22 км слаб. дождь н/о +13.1 +10.2 83 +13 +13 тепло 1006.7 999.0
03 16.08 ЮЗ 4 30 км слаб. дождь н/о +13.0 +11.1 88 +11 +11 по сезону 1006.0 998.3
04 16.08 Ю 4 19 км слаб. дождь н/о +12.9 +11.7 92 +11 +11 тепло 1005.2 997.4
05 16.08 Ю 5 28 км слаб. дождь н/о +13.0 +11.9 93 +11 +11 тепло 1004.5 996.7
06 16.08 ЮВ 4 18 км в посл. час дождь н/о +13.1 +12.4 96 +11 +11 по сезону 1003.7 996.0 +12.3 2
07 16.08 Ю 8 13 км слаб. морось н/о +13.7 +12.8 94 +11 +11 по сезону 1002.7 995.0
08 16.08 Ю 9 15 км слаб. дождь н/о +14.0 +12.8 92 +11 +11 по сезону 1001.5 993.8
09 16.08 Ю 10
{14}
14 км слаб. морось н/о +13.7 +12.5 92 +11 +11 по сезону 1000.7 993.0
10 16.08 Ю 11-17
{17}
7000 м слаб. дождь н/о +13.7 +12.7 94 +10 +10 прохладно 999.7 992.0
11 16.08 Ю 14-19
{19}
8000 м в посл. час дождь н/о +14.1 +12.9 92 +11 +11 прохладно 998.3 990.6
12 16.08 Ю 12-17
{21}
3300 м в посл. час дождь н/о +14.4 +13.5 94 +11 +11 холодно 997.1 989.4 0.4
13 16.08 Ю 13
{20}
4500 м слаб. ливневой дождь н/о +14.1 +13.2 94 +11 +11 по сезону 996.3 988.6
14 16.08 Ю 13
{17}
9000 м в посл. час дождь н/о +14.9 +13.6 92 +12 +12 по сезону 995.6 988.0
15 16.08 Ю 11-16
{17}
9000 м дым н/о +16.0 +14.2 89 +14 +14 по сезону 994.6 987.0
16 16.08 Ю 9
{17}
19 км н/о +16.4 +14.3 87 +15 +15 тепло 994.0 986.4
17 16.08 Ю 6 15 км н/о +17.0 +14.4 85 +16 +16 тепло 993.5 985.9
18 16.08 ЮВ 4 17 км в посл. час дождь н/о +16.3 +14.3 88 +16 +16 тепло 993.3 985.7 +17.2 0.6
19 16.08 Ю 4 28 км н/о +16.3 +14.2 87 +16 +16 тепло 992.9 985.3
20 16.08 Ю 3 35 км н/о +16.1 +14.3 89 +16 +16 тепло 992.8 985.2
21 16.08 Ю 3 14 км н/о +14.7 +13.5 93 +14 +14 по сезону 992.7 985.1
22 16.08 Ю 4 16 км н/о +14.8 +13.6 93 +14 +14 тепло 992.4 984.7
23 16.08 Ю 4 17 км слаб. ливневой дождь н/о +15.1 +14.2 94 +14 +14 тепло 991.6 984.0
00 17.08 Ю 2 30 км в посл. час дождь н/о +14.9 +13.9 94 +15 +15 тепло 990.6 983.0 0.6
01 17.08 Ю 2 30 км н/о +14.4 +13.8 96 +14 +14 тепло 990.6 983.0
02 17.08 ЮЗ 3 35 км н/о +14.5 +13.3 93 +13 +13 тепло 990.0 982.4
03 17.08 З 1 35 км н/о +13.8 +12.7 93 +14 +14 тепло 990.0 982.4
04 17.08 В 1 30 км н/о +13.6 +12.8 95 +14 +14 тепло 989.6 982.0
05 17.08 ЮЗ 4 45 км н/о +14.0 +12.0 88 +13 +13 тепло 989.5 981.9
06 17.08 ЮЗ 6 50 км н/о +14.1 +11.3 83 +12 +12 по сезону 989.6 982.0 +12.6 0.6
07 17.08 ЮЗ 5 40 км в посл. час дождь н/о +14.2 +11.8 85 +13 +13 тепло 990.2 982.6
08 17.08 ЮЗ 3 40 км н/о +15.4 +9.9 70 +15 +15 тепло 990.9 983.3
09 17.08 З 7 23 км н/о +16.2 +7.9 58 +15 +15 тепло 991.3 983.7
10 17.08 ЮЗ 7 30 км н/о +17.5 +7.9 53 +17 +17 тепло 991.6 984.1
11 17.08 З 6 35 км н/о +17.3 +7.7 53 +16 +16 по сезону 992.1 984.5
12 17.08 ЮЗ 8 35 км н/о +15.9 +8.7 62 +14 +14 по сезону 992.6 985.0 0.0
13 17.08 З 5
{13}
40 км ливневой дождь н/о +13.5 +9.8 78 +12 +12 по сезону 993.3 985.7
14 17.08 ЮЗ 5 30 км в посл. час дождь н/о +16.6 +10.5 67 +16 +16 тепло 993.3 985.8
15 17.08 ЮЗ 8 23 км н/о +17.8 +7.3 50 +17 +17 тепло 993.3 985.8
16 17.08 ЮЗ 7 40 км н/о +17.8 +6.4 47 +17 +17 тепло 993.3 985.7
17 17.08 ЮЗ 6
{13}
40 км н/о +16.2 +6.6 53 +15 +15 тепло 993.6 986.0
18 17.08 Ю 5 50 км н/о +15.8 +7.8 59 +15 +15 по сезону 993.5 985.9 +18.4 0.6
19 17.08 ЮЗ 6 40 км н/о +16.4 +7.7 56 +15 +15 тепло 993.3 985.8
20 17.08 Ю 5 45 км н/о +13.5 +8.5 72 +12 +12 по сезону 993.4 985.8
21 17.08 ЮЗ 4 50 км н/о +13.2 +8.3 72 +12 +12 по сезону 993.4 985.7
22 17.08 Ю 6 45 км н/о +12.7 +8.5 76 +10 +10 тепло 993.5 985.8
23 17.08 Ю 8 45 км н/о +12.7 +9.3 80 +10 +10 по сезону 993.2 985.5
00 18.08 Ю 7 40 км н/о +13.1 +10.0 81 +11 +11 по сезону 992.8 985.1
01 18.08 Ю 10
{14}
30 км н/о +13.3 +9.8 79 +10 +10 тепло 992.3 984.6
02 18.08 Ю 6
{13}
30 км н/о +12.8 +9.4 80 +10 +10 по сезону 992.1 984.4
03 18.08 Ю 4 35 км н/о +12.6 +9.0 79 +11 +11 по сезону 991.8 984.1
04 18.08 ЮЗ 4 40 км н/о +12.5 +8.9 79 +11 +11 тепло 991.2 983.6
05 18.08 ЮЗ 9
{13}
27 км н/о +12.5 +9.2 80 +9 +9 по сезону 990.5 982.9
06 18.08 ЮЗ 8-14
{14}
29 км н/о +12.5 +9.3 81 +9 +9 по сезону 990.3 982.6 +12.2
07 18.08 Ю 11
{15}
35 км н/о +12.8 +9.7 81 +9 +9 по сезону 990.2 982.5
08 18.08 Ю 10
{15}
28 км н/о +13.7 +10.1 79 +11 +11 по сезону 990.1 982.4
09 18.08 Ю 11
{15}
40 км н/о +14.5 +10.3 76 +12 +12 по сезону 990.1 982.5
10 18.08 ЮЗ 8
{14}
45 км н/о +14.6 +10.0 74 +12 +12 по сезону 990.3 982.7
11 18.08 ЮЗ 8
{14}
35 км н/о +16.6 +9.7 64 +15 +15 по сезону 989.6 982.0
12 18.08 ЮЗ 10-15
{16}
50 км н/о +17.1 +10.6 66 +16 +16 по сезону 989.6 982.0
13 18.08 ЮЗ 9
{16}
50 км н/о +16.6 +10.4 67 +15 +15 тепло 989.7 982.1
14 18.08 ЮЗ 10-15
{15}
50 км н/о +17.4 +10.5 64 +16 +16 тепло 989.9 982.4
15 18.08 ЮЗ 10
{16}
35 км н/о +17.8 +10.8 64 +17 +17 тепло 990.1 982.6
16 18.08 ЮЗ 10
{15}
50 км в посл. час дождь н/о +17.9 +9.8 59 +17 +17 тепло 990.4 982.8
17 18.08 З 8
{14}
50 км н/о +17.0 +9.3 60 +16 +16 тепло 991.1 983.6
18 18.08 З 6
{14}
50 км н/о +16.1 +9.7 66 +15 +15 по сезону 991.8 984.2 +18.2 0.0
19 18.08 З 5 50 км н/о +16.1 +9.8 66 +15 +15 тепло 992.7 985.2
20 18.08 З 5 50 км н/о +14.9 +9.4 70 +14 +14 тепло 993.7 986.1
21 18.08 З 4 50 км н/о +13.7 +9.1 74 +12 +12 по сезону 994.9 987.2
22 18.08 ЮЗ 3 50 км н/о +12.8 +8.9 77 +11 +11 тепло 995.7 988.0
23 18.08 ЮЗ 2 50 км н/о +12.8 +8.6 76 +12 +12 тепло 996.4 988.7
00 19.08 З 4 45 км н/о +12.2 +8.7 79 +10 +10 по сезону 996.9 989.2
01 19.08 З 5 40 км н/о +13.1 +8.4 73 +11 +11 тепло 997.2 989.5
02 19.08 З 5 35 км н/о +12.9 +8.0 72 +11 +11 тепло 997.6 989.9
03 19.08 СЗ 1 35 км н/о +12.0 +7.7 75 +13 +13 тепло 998.2 990.5
04 19.08 З 5 50 км н/о +12.6 +7.6 72 +11 +11 тепло 998.4 990.7
05 19.08 З 4 40 км н/о +12.6 +7.5 71 +11 +11 тепло 998.9 991.2
06 19.08 ЮЗ 2 35 км н/о +12.6 +7.7 72 +12 +12 по сезону 999.3 991.6 +10.5
07 19.08 ЮЗ 4 40 км н/о +13.2 +8.3 72 +12 +12 тепло 999.9 992.1
08 19.08 З 4 35 км слаб. ливневой дождь н/о +14.7 +9.1 69 +14 +14 тепло 1000.4 992.7
09 19.08 З 5 30 км слаб. морось с дождем н/о +15.8 +9.5 66 +15 +15 тепло 1000.8 993.1
10 19.08 З 6 45 км в посл. час дождь н/о +16.5 +9.5 63 +15 +15 по сезону 1001.1 993.4
11 19.08 З 5 40 км в посл. час дождь н/о +17.9 +9.5 58 +18 +18 тепло 1001.6 994.0
12 19.08 З 7 40 км н/о +18.8 +9.3 54 +19 +19 тепло 1002.2 994.6 0.0
13 19.08 ЮЗ 8 50 км н/о +18.4 +7.9 50 +18 +18 тепло 1002.9 995.3
14 19.08 З 7
{13}
13 км в посл. час дождь н/о +18.3 +10.0 58 +18 +18 тепло 1003.4 995.8
15 19.08 З 6 45 км н/о +18.8 +8.6 51 +19 +19 тепло 1003.7 996.1
16 19.08 З 7 45 км в посл. час дождь н/о +17.8 +8.6 55 +17 +17 тепло 1004.2 996.6
17 19.08 З 6 45 км н/о +18.0 +8.1 52 +17 +17 тепло 1004.5 996.9
18 19.08 З 4 50 км н/о +17.2 +8.0 55 +17 +17 тепло 1005.2 997.6 +19.8 0.0
19 19.08 З 6 30 км слаб. ливневой дождь н/о +15.3 +9.8 70 +14 +14 тепло 1006.3 998.6
20 19.08 З 3 50 км в посл. час дождь н/о +13.1 +10.7 85 +12 +12 по сезону 1007.4 999.6
21 19.08 З 3 50 км в посл. час дождь н/о +13.2 +10.4 83 +12 +12 по сезону 1007.9 1000.2
22 19.08 З 3 50 км н/о +13.0 +10.4 84 +12 +12 тепло 1008.6 1000.8
23 19.08 З 3 50 км н/о +12.7 +9.6 81 +11 +11 по сезону 1009.5 1001.7
00 20.08 СЗ 5 50 км н/о +12.2 +9.4 83 +10 +10 по сезону 1010.3 1002.4 0.4
01 20.08 СЗ 3 50 км н/о +11.9 +8.9 82 +10 +10 тепло 1010.6 1002.8
02 20.08 З 3 50 км н/о +11.0 +8.4 84 +9 +9 по сезону 1011.2 1003.4
03 20.08 З 3 50 км н/о +11.0 +8.3 83 +9 +9 по сезону 1011.9 1004.0
04 20.08 З 3 50 км н/о +11.1 +8.3 83 +9 +9 тепло 1012.5 1004.6
05 20.08 З 3 50 км н/о +11.0 +8.3 83 +9 +9 по сезону 1013.2 1005.3
06 20.08 З 3 45 км н/о +11.6 +8.5 81 +10 +10 по сезону 1013.9 1006.1 +10.8 0.4
07 20.08 З 4 35 км н/о +12.6 +8.6 77 +11 +11 по сезону 1014.6 1006.7
08 20.08 СЗ 4 30 км н/о +13.3 +7.8 69 +12 +12 по сезону 1015.2 1007.4
09 20.08 СЗ 5 40 км н/о +13.4 +6.3 62 +12 +12 по сезону 1015.6 1007.7
10 20.08 СЗ 5 45 км н/о +14.8 +6.5 58 +13 +13 по сезону 1015.9 1008.1
11 20.08 З 3 35 км н/о +15.1 +6.7 57 +14 +14 по сезону 1016.6 1008.8
12 20.08 СЗ 3 30 км н/о +15.2 +6.3 55 +15 +15 по сезону 1017.1 1009.3
13 20.08 С 2 30 км н/о +15.9 +7.2 56 +16 +16 тепло 1017.5 1009.7
14 20.08 ЮВ 4 50 км н/о +15.4 +8.2 62 +15 +15 по сезону 1018.0 1010.2
15 20.08 ЮВ 4 45 км н/о +15.7 +9.5 67 +15 +15 по сезону 1018.3 1010.5
16 20.08 Ю 5 40 км н/о +15.0 +9.8 71 +14 +14 тепло 1018.5 1010.6
17 20.08 Ю 5 40 км н/о +14.6 +9.9 73 +13 +13 по сезону 1019.0 1011.1
18 20.08 Ю 5 50 км н/о +13.6 +10.3 80 +12 +12 прохладно 1019.4 1011.6 +17.0
19 20.08 Ю 5 40 км н/о +12.9 +10.7 86 +11 +11 по сезону 1019.9 1012.1
20 20.08 Ю 5 35 км н/о +12.7 +11.0 89 +11 +11 по сезону 1020.0 1012.1
21 20.08 Ю 2 35 км н/о +12.1 +10.7 91 +11 +11 по сезону 1020.3 1012.4
22 20.08 Ю 2 30 км н/о +11.7 +10.8 94 +11 +11 тепло 1020.3 1012.3
23 20.08 ЮВ 1 35 км н/о +11.5 +10.4 93 +12 +12 тепло 1020.3 1012.4
00 21.08 ЮЗ 1 45 км н/о +10.9 +9.9 94 +10 +10 по сезону 1020.4 1012.5
01 21.08 Ю 1 45 км н/о +9.9 +9.0 94 +9 +9 тепло 1020.4 1012.5
02 21.08 С 1 300 м туман н/о +7.9 +7.1 95 +8 +8 по сезону 1020.4 1012.4
03 21.08 штиль 0 5000 м в посл. час туман н/о +6.8 +6.4 97 +6 +6 прохладно 1020.2 1012.1
04 21.08 штиль 0 2000 м в посл. час туман н/о +6.8 +6.6 99 +6 +6 по сезону 1020.0 1011.9
05 21.08 СВ 1 50 км в посл. час туман н/о +6.4 +6.1 98 +6 +6 по сезону 1019.8 1011.8
06 21.08 Ю 2 28 км н/о +10.2 +9.7 97 +9 +9 по сезону 1019.7 1011.7 +5.9 0.2
07 21.08 Ю 3 19 км н/о +13.3 +11.3 88 +12 +12 тепло 1019.5 1011.7
08 21.08 ЮЗ 4 40 км н/о +13.9 +11.2 84 +13 +13 по сезону 1019.4 1011.6
09 21.08 Ю 6 35 км н/о +14.7 +11.5 81 +13 +13 по сезону 1019.1 1011.3
10 21.08 Ю 6 19 км н/о +16.8 +12.1 74 +16 +16 тепло 1018.6 1010.8
11 21.08 Ю 8 35 км н/о +17.5 +11.3 67 +16 +16 по сезону 1018.2 1010.5
12 21.08 Ю 6 27 км н/о +16.9 +12.2 74 +16 +16 по сезону 1017.8 1010.0
13 21.08 Ю 8 30 км н/о +18.1 +11.9 67 +17 +17 тепло 1016.9 1009.2
14 21.08 Ю 6
{13}
30 км в посл. час дождь н/о +16.6 +13.2 80 +15 +15 по сезону 1016.5 1008.8
15 21.08 Ю 7 35 км н/о +17.1 +12.1 72 +16 +16 по сезону 1015.8 1008.1
16 21.08 Ю 7 45 км н/о +16.3 +10.6 69 +15 +15 тепло 1015.3 1007.6
17 21.08 Ю 8 30 км слаб. ливневой дождь н/о +16.2 +11.1 72 +15 +15 тепло 1014.9 1007.1
18 21.08 Ю 6
{13}
50 км слаб. ливневой дождь н/о +14.4 +11.2 81 +12 +12 по сезону 1014.5 1006.7 +18.7 0.0
19 21.08 Ю 8 24 км дождь н/о +13.9 +12.1 89 +11 +11 тепло 1013.8 1006.0
20 21.08 Ю 10
{14}
45 км в посл. час дождь н/о +13.9 +11.4 85 +11 +11 по сезону 1013.2 1005.4
21 21.08 Ю 8
{14}
45 км н/о +13.2 +11.5 89 +10 +10 по сезону 1012.7 1004.9
22 21.08 ЮЗ 5 50 км н/о +13.4 +11.4 88 +11 +11 тепло 1012.5 1004.7
23 21.08 ЮЗ 4 50 км н/о +12.8 +10.7 87 +11 +11 тепло 1012.5 1004.7
00 22.08 З 2 50 км в посл. час туман н/о +12.2 +9.9 86 +11 +11 по сезону 1013.1 1005.2 0.6
01 22.08 СВ 2 50 км в посл. час туман н/о +11.4 +7.5 77 +11 +11 тепло 1012.9 1005.1
02 22.08 ЮЗ 6 40 км н/о +11.2 +7.4 77 +8 +8 по сезону 1012.7 1004.8
03 22.08 ЮЗ 6 50 км н/о +10.5 +7.3 81 +7 +7 прохладно 1012.7 1004.8
04 22.08 ЮЗ 4 35 км н/о +10.7 +7.5 81 +8 +8 тепло 1012.8 1004.9
05 22.08 ЮЗ 5 29 км н/о +11.0 +7.6 80 +8 +8 по сезону 1012.7 1004.8
06 22.08 ЮЗ 3 28 км н/о +11.5 +8.0 79 +10 +10 по сезону 1012.8 1005.0 +10.4 0.6
07 22.08 ЮЗ 7 30 км н/о +12.3 +9.3 82 +9 +9 по сезону 1012.6 1004.8
08 22.08 ЮЗ 5 27 км н/о +13.7 +9.9 78 +12 +12 по сезону 1012.5 1004.7
09 22.08 ЮЗ 7 28 км н/о +15.0 +10.2 73 +13 +13 по сезону 1012.2 1004.5
10 22.08 ЮЗ 8
{13}
35 км н/о +16.2 +9.9 66 +15 +15 по сезону 1011.8 1004.1
11 22.08 ЮЗ 9
{14}
24 км н/о +17.5 +9.5 59 +16 +16 по сезону 1011.6 1003.9
12 22.08 ЮЗ 9
{14}
20 км н/о +18.6 +8.8 53 +18 +18 тепло 1011.1 1003.4
13 22.08 ЮЗ 9
{15}
40 км н/о +18.4 +7.1 48 +18 +18 тепло 1010.8 1003.1

 

Местоположение метеостанции Абердин (Великобритания): широта 57.20 долгота -2.22 высота над уровнем моря 69 м.

В архиве по умолчанию представлена погода в Абердине за последнюю неделю. Архивные данные за месяц целиком и за предыдущие месяцы, начиная с января 2011 года, Вы можете получить, выбрав интересующий диапазон дат из раскрывающегося списка и нажав кнопку "Ввод!".


*Определитесь, кто Вы:
робот инопланетянин человек

Внимание! Время в таблицах - всемирное. Для получения местного времени необходимо прибавить поправку, которая равна 0 ч.

Смотрите также архив погоды в соседних городах и на ближайших метеорологических станциях:

Погода в Инвербери (Великобритания) (39 км)
Погода в Абойне (Великобритания) (39 км)
Погода на Кэрнуэлле (Великобритания) (81 км)
Погода на Кайрнгорме (Великобритания) (86 км)
Погода в Лоссимуте (Великобритания) (88 км)
Погода в Кинлоссе (Великобритания) (95 км)
Погода на Авморе (Великобритания) (97 км)
Погода в Леучарсе (Великобритания) (97 км)
Погода в Тейн-Рендже (Великобритания) (125 км)
Погода в Страталлане (Великобритания) (134 км)

Пояснения к столбцам:

Ветер - указаны скорость ветра в м/с - средняя за 10 мин, порывы в срок и между сроками (в фигурных скобках) и направление, откуда дует ветер: С - северный, СВ - северо-восточный, В - восточный, ЮВ - юго-восточный, Ю - южный, ЮЗ - юго-западный, З - западный, СЗ - северо-западный.
Видимость - горизонтальная дальность видимости в метрах или километрах. При видимости от 1 до 10 км при отсутствии осадков обычно наблюдается дымка, при ухудшении видимости до 1 км и менее - туман. В сухую погоду видимость может ухудшаться дымом, пылью или мглою.
Явления - указаны атмосферные явления, наблюдавшиеся в срок или в последний час перед сроком; фигурными скобками обозначены явления, наблюдавшиеся между сроками (за 1-3 часа до срока); квадратными скобками обозначены град или гололедные отложения с указанием их диаметра в мм.
Облачность - указаны через наклонную черту общая и нижняя облачность в баллах и высота нижней границы облаков в метрах; квадратными скобками обозначены формы облаков: Ci - перистые, Cs - перисто-слоистые, Cc - перисто-кучевые, Ac - высококучевые, As - высокослоистые, Sc - слоисто-кучевые, Ns - слоисто-дождевые, Cu - кучевые, Cb - кучево-дождевые. Подробнее классификацию облаков см. в Атласе облаков (PDF).
T - Температура воздуха - температура, измеренная на высоте 2 м над землей.
Td - Температура точки росы - температура, при понижении до которой содержащийся в воздухе водяной пар достигнет насыщения.
f - Относительная влажность воздуха - влажноcть воздуха, измеренная на высоте 2 м над землей.
Te - Эффективная температура - температура, которую ощущает одетый по сезону человек в тени. Характеристика душности погоды. При расчете учитывается влияние влажности воздуха и скорости ветра на теплоощущения человека.
Tes - Эффективная температура на солнце - температура, которую ощущает человек, с поправкой на солнечный нагрев. Характеристика знойности погоды. Зависит от высоты солнца над горизонтом, облачности и скорости ветра. Ночью, в пасмурную погоду, а также при ветре 12 м/с и более поправка равна нулю.
P - Атмосферное давление - приведенное к уровню моря атмосферное давление.
Po - Атмосферное давление - измеренное на уровне метеостанции атмосферное давление.
Tmin - Минимальная температура - минимум температуры воздуха на высоте 2 м над землей.
Tmax - Максимальная температура - максимум температуры воздуха на высоте 2 м над землей.
R - Количество осадков - Количество выпавших осадков за период времени, мм. При наведении курсора мыши на число - период времени, за который выпало указанное количество осадков.
R24 - Количество осадков - Количество выпавших осадков за 24 часа, мм.
S - Снежный покров - Высота снежного покрова, см. При наведении курсора мыши на число - состояние снежного покрова и степень покрытия местности в баллах.